sat.trackr.live / text

‹ back to catalog

UNKNOWN

NORAD 82453

UNKNOWN UNKNOWN UNKNOWN

§ Identity

Operator
Country
Launch date
Launch site
Launch vehicle
Mass (kg)
RCS (m²)

External: N2YO · Heavens-Above

§ Orbital elements

Epoch: 2026-05-22T08:14:06.049248Z

Period
116.16 min
Inclination
102.2016°
Eccentricity
0.0093148
Mean motion
12.39717485 rev/d
Perigee alt
1,434.3 km
Apogee alt
1,581.3 km
Semi-major
7,885.9 km
B*
3.7863e-4
RAAN
103.7762°
Arg perigee
271.3234°
Mean anomaly
87.7159°
Rev number
56,596

§ Raw data

UNKNOWN1 82453U          26142.34312557  .00000005  00000+0  37863-3 0  99912 82453 102.2016 103.7762 0093148 271.3234  87.7159 12.39717485565964

JSON: /api/v1/satellites/82453 · /tle

For live sub-satellite position, see the globe view (requires WebGL).

§ Visibility from observer

Set your observer location to see the next 7 days of passes ≥ 10°. The values pass through the URL so the page stays shareable.

No JS? Fill the form by hand. The geolocation button needs JavaScript.